Regional Weather Roundup
Issued by NWS

Home | Current Version | Previous Version | Graphics & Text | Print | Product List | Glossary On
Versions: 1 2 3 4 5 6 7 8 9 10 11 12 13 14 15 16 17 18 19 20 21 22 23 24 25 26 27 28 29 30 31 32 33 34 35 36 37 38 39 40 41 42 43 44 45 46 47 48 49 50
000
ASUS43 KBIS 172210
RWRND

NORTH DAKOTA REGIONAL WEATHER ROUNDUP
NATIONAL WEATHER SERVICE BISMARCK ND
500 PM CDT THU APR 17 2014

NOTE: "FAIR" INDICATES FEW OR NO CLOUDS BELOW 12,000 FEET WITH NO
SIGNIFICANT WEATHER AND/OR OBSTRUCTIONS TO VISIBILITY.


NDZ001>003-009>011-017-172300-
NORTHWEST NORTH DAKOTA

CITY           SKY/WX    TMP DP  RH WIND       PRES   REMARKS
WILLISTON      CLOUDY    44  26  49 SE15G26   30.06F
MINOT          CLOUDY    42  16  34 SE13      30.16F
MINOT AFB      CLOUDY    42  19  39 SE12      30.16F
$$

NDZ018>021-031>035-040>046-172300-
SOUTHWEST NORTH DAKOTA

CITY           SKY/WX    TMP DP  RH WIND       PRES   REMARKS
BISMARCK       CLOUDY    46  19  34 S18       30.17F
DICKINSON      PTSUNNY   39  26  59 SE20G28   30.06F
GARRISON         N/A     43  20  39 SE14      30.14F
HETTINGER ARPT MOSUNNY   46  26  45 SE18G24   30.06F
$$

NDZ004>008-012>016-024-026-027-054-172300-
NORTHEAST NORTH DAKOTA

CITY           SKY/WX    TMP DP  RH WIND       PRES   REMARKS
GRAND FORKS    MOSUNNY   42   8  24 E9        30.30F
GRND FRKS AFB  MOSUNNY   41  10  27 N8        30.30F
DEVILS LAKE    SUNNY     39  10  30 S9        30.25F
$$

NDZ022-023-025-028>030-036>039-047>053-172300-
SOUTHEAST NORTH DAKOTA

CITY           SKY/WX    TMP DP  RH WIND       PRES   REMARKS
FARGO          SUNNY     44  13  28 W8        30.28F
JAMESTOWN      SUNNY     45  13  27 SE7G17    30.22F
$$




USA.gov is the U.S. government's official web portal to all federal, state and local government web resources and services.